This is the latest recevied weather packets stored in our database for station/object CRYC. If no packets are shown the sender has not sent any weather packets the latest 1 day(s).
| Time | Temp. | Humidity | Pressure | Rain* | Wind** | Luminosity | Snow |
|---|---|---|---|---|---|---|---|
| 1778038387 | 19.44° C | - | - | 0 mm | 2.24 m/s, 224° | - | - |
| 1778037777 | 19.44° C | - | - | 0 mm | 0.89 m/s, 233° | - | - |
| 1778037174 | 19.44° C | - | - | 0 mm | 2.68 m/s, 243° | - | - |
| 1778035363 | 20° C | - | - | 0 mm | 0.89 m/s, 236° | - | - |
| 1778034762 | 20° C | - | - | 0 mm | 0.89 m/s, 198° | - | - |
| 1778034154 | 20° C | - | - | 0 mm | 1.34 m/s, 235° | - | - |
| 1778033551 | 20° C | - | - | 0 mm | 1.34 m/s, 257° | - | - |
| 1778032944 | 20° C | - | - | 0 mm | 0 m/s | - | - |
| 1778032339 | 20° C | - | - | 0 mm | 1.79 m/s, 101° | - | - |
| 1778031736 | 20° C | - | - | 0 mm | 1.79 m/s, 210° | - | - |
| 1778031131 | 20.56° C | - | - | 0 mm | 0.89 m/s, 197° | - | - |
| 1778030527 | 20.56° C | - | - | 0 mm | 0.45 m/s, 194° | - | - |
| 1778029922 | 20.56° C | - | - | 0 mm | 0.45 m/s, 183° | - | - |
| 1778029317 | 20.56° C | - | - | 0 mm | 0 m/s | - | - |
| 1778028713 | 21.11° C | - | - | 0 mm | 0.45 m/s, 159° | - | - |
| 1778028110 | 21.11° C | - | - | 0 mm | 0 m/s | - | - |
| 1778027506 | 21.11° C | - | - | 0 mm | 0.89 m/s, 131° | - | - |
| 1778025694 | 22.22° C | - | - | 0 mm | 0.89 m/s, 188° | - | - |
| 1778025088 | 22.22° C | - | - | 0 mm | 1.34 m/s, 190° | - | - |
| 1778024482 | 22.78° C | - | - | 0 mm | 0.89 m/s, 197° | - | - |
| 1778023878 | 23.33° C | - | - | 0 mm | 0 m/s | - | - |
| 1778022671 | 23.89° C | - | - | 0 mm | 0.45 m/s, 180° | - | - |
| 1778022066 | 24.44° C | - | - | 0 mm | 1.34 m/s, 252° | - | - |
| 1778021479 | 24.44° C | - | - | 0 mm | 1.34 m/s, 148° | - | - |
| 1778020857 | 25° C | - | - | 0 mm | 3.13 m/s, 191° | - | - |
* Rain latest hour (hover to see other rain measurements)
** Current wind speed in m/s (hover to see current wind gust speed)